Location: *
(49.8044°N, 4.0558°E)
Time: 10:43:17
(UTC+00:00)

Cosmos 1174 - Pass Details

Date: 09 April 2020
Orbit: 371 x 1148 km, 66.1° (Epoch: 25 May)

Event Time Altitude Azimuth Distance (km) Brightness Sun altitude
Rises 19:53:51 0° 324° (NW) 2,597 8.6 -13.5°
Reaches altitude 10° 19:55:49 10° 327° (NNW) 1,803 7.5 -13.8°
Maximum altitude 19:59:50 67° 51° (NE) 683 4.1 -14.4°
Enters shadow 20:02:45 24° 129° (SE) 1,438 5.3 -14.8°
